Regional Weather Roundup
Issued by NWS

Home | Current Version | Previous Version | Text Only | Print | Product List | Glossary On
Versions: 1 2 3 4 5 6 7 8 9 10 11 12 13 14 15 16 17 18 19 20 21 22 23 24 25 26 27 28 29 30 31 32 33 34 35 36 37 38 39 40 41 42 43 44 45 46 47 48 49 50
000
ASUS43 KDTX 061501
RWRMI
MICHIGAN HOURLY REGIONAL WEATHER ROUNDUP
NATIONAL WEATHER SERVICE DETROIT/PONTIAC MI
1100 AM EDT WED MAY 06 2015

NOTE: "FAIR" INDICATES FEW OR NO CLOUDS BELOW 12,000 FEET WITH NO
SIGNIFICANT WEATHER AND/OR OBSTRUCTION TO VISIBILITY.

MIZ047>049-052>055-059>063-066>070-074>076-081>083-061600-
SOUTHEAST LOWER MICHIGAN

CITY           SKY/WX    TMP DP  RH WIND       PRES   REMARKS
ADRIAN         CLOUDY    54  53  97 E8        30.26S FOG
ALMA           CLOUDY    56  51  82 E6        30.27S
ANN ARBOR      CLOUDY    57  54  89 E7        30.25F FOG
BAD AXE        PTSUNNY   59  47  64 S3        30.29R
CARO           PTSUNNY   61  45  56 S5        30.27S
DETROIT CITY   CLOUDY    57  50  77 VRB6      30.26F
DETROIT        CLOUDY    60  54  80 E5        30.26F HAZE
FLINT          CLOUDY    61  52  72 E7        30.26F
GROSSE ILE     CLOUDY    57  54  88 E3        30.25S FOG
HILLSDALE      CLOUDY    56  56 100 SE3       30.24F FOG
HOWELL         CLOUDY    58  55  87 E5        30.25S FOG

CITY           SKY/WX    TMP DP  RH WIND       PRES   REMARKS
JACKSON        CLOUDY    56  54  93 SE8       30.24F FOG
LAMBERTVILLE   FOG       54  52  94 E6        30.26S VSB 1/2
LANSING        CLOUDY    57  53  86 SE5       30.26R FOG
LAPEER         CLOUDY    57  50  77 SE5       30.27S
MASON            N/A    N/A N/A N/A MISG        N/A
MONROE         CLOUDY    55  54  94 SE6       30.24F FOG
MT. CLEMENS    CLOUDY    57  51  79 E3        30.25S HAZE
PONTIAC        CLOUDY    59  53  80 SE7       30.26S
PORT HOPE        N/A     46  42  86 E3        30.28R
PORT HURON     CLOUDY    55  48  76 CALM      30.27S
TRI CITIES     CLOUDY    60  46  59 SE5       30.28S
MIDLAND        CLOUDY    60  44  55 E6        30.27F
TROY           CLOUDY    59  51  74 E3        30.28S
SAGINAW HB     CLOUDY    59  46  63 CALM      30.27S
$$
MIZ043>046-050>051-056>058-064>065-071>073-077>080-061600-
SOUTHWEST LOWER MICHIGAN

CITY           SKY/WX    TMP DP  RH WIND       PRES   REMARKS
BATTLE CREEK   CLOUDY    57  55  93 SE7       30.24S FOG
BENTON HARBOR  SUNNY     62  57  83 SE9       30.19S
BIG RAPIDS     CLOUDY    55  51  85 SE6       30.26R
COLDWATER      CLOUDY    56  56  98 CALM      30.24S FOG
FREMONT        PTSUNNY   60  53  76 E5        30.23F
HOLLAND        CLOUDY    59  56  89 E10       30.22F
GRAND RAPIDS   CLOUDY    56  53  90 E9        30.24F FOG
IONIA          CLOUDY    56  54  91 E6        30.24F FOG
KALAMAZOO      CLOUDY    59  55  87 SE7       30.23F
LUDINGTON      CLOUDY    62  52  71 SE9       30.23F
MARSHALL       CLOUDY    55  55  98 SE3       30.24S FOG
MOUNT PLEASANT CLOUDY    58  48  71 E7        30.26F
MUSKEGON       PTSUNNY   62  53  72 E10       30.23F
SOUTH HAVEN    PTSUNNY   63  56  80 E8        30.20S
$$
MIZ016>042-061600-
NORTHERN LOWER MICHIGAN

CITY           SKY/WX    TMP DP  RH WIND       PRES   REMARKS
ALPENA         MOSUNNY   60  45  57 E7        30.30S
BEAVER ISLAND  MOSUNNY   63  37  38 CALM      30.27S
BELLAIRE       CLOUDY    63  37  38 CALM      30.26S
CADILLAC       CLOUDY    59  47  65 SE8       30.24F
CHARLEVOIX     MOSUNNY   62  40  44 E5        30.28F
FRANKFORT      LGT RAIN  60  38  45 SE3       30.23S
GAYLORD        PTSUNNY   60  35  39 S6        30.27F
GRAYLING       CLOUDY    60  36  39 SE6       30.27F
HARBOR SPRINGS MOSUNNY   63  36  36 CALM      30.26F
HOUGHTON LAKE  CLOUDY    57  43  59 S6        30.27F
MANISTEE       PTSUNNY   59  46  63 SE3       30.24S
OSCODA         MOSUNNY   58  48  68 CALM      30.28F
PELLSTON       MOSUNNY   64  35  34 SE7       30.28S
ROGERS CITY    SUNNY     53  45  74 NE6       30.30S
TRAVERSE CITY  LGT RAIN  58  42  55 N3        30.24F
$$
MIZ007>008-015-061600-
EASTERN UPPER MICHIGAN

CITY           SKY/WX    TMP DP  RH WIND       PRES   REMARKS
KINROSS        SUNNY     63  36  36 SE9       30.28S
MACKINAC ISLAN SUNNY     54  42  65 E7        30.28F
NEWBERRY       SUNNY     65  32  29 S13G23    30.26F
S. S. MARIE    SUNNY     61  38  42 SE8       30.28F
MUNISING         N/A     68  30  24 S8        30.22F
$$
MIZ004>006-011>014-085-061600-
CENTRAL UPPER MICHIGAN

CITY           SKY/WX    TMP DP  RH WIND       PRES   REMARKS
MANISTIQUE     SUNNY     59  33  37 S5        30.26S
ESCANABA       PTSUNNY   55  37  50 E3        30.24S
MENOMINEE      CLOUDY    55  41  58 E7        30.22F
SAWYER-GWINN   SUNNY     63  28  27 SW9       30.22F
$$
MIZ001>003-009>011-084-061600-
WESTERN UPPER MICHIGAN

CITY           SKY/WX    TMP DP  RH WIND       PRES   REMARKS
IRON MOUNTAIN  CLOUDY    60  31  33 SE10      30.20F
HOUGHTON       SUNNY     62  28  27 SE8       30.19F
COPPER HARBOR    N/A     50  34  54 CALM      30.19F
IRONWOOD       CLOUDY    57  46  67 SE15      30.13F
$$

ABBREVIATIONS USED IN REMARKS
   TC - TEMPERATURE IN CELSIUS
  WCI - WIND CHILL INDEX
   HX - HEAT INDEX
  VSB - VISIBILITY



USA.gov is the U.S. government's official web portal to all federal, state and local government web resources and services.